Simultaneous Nadir Overpasses (SNOs) Predictions

Prediction of SNOs between LANDSAT-8 and NOAA-19 Satellite Orbit:

Table of predicted SNOs for the next 14.0 days since TLE Epoch: 2/1/2020
Index Date (LANDSAT-8) Time (LANDSAT-8) Lat,Lon (LANDSAT-8) SZA (LANDSAT-8 ) Date (NOAA-19) Time (NOAA-19) Lat,Lon (NOAA-19) SZA (NOAA-19 ) Distance(km) Time Diff (sec)
1 02/02/2020 09:11:16 79.45, 65.62 96.92 02/02/2020 09:10:51 79.45, 65.63 96.92 0.21 25
2 02/02/2020 10:00:44 -79.41,-126.98 83.14 02/02/2020 10:01:49 -79.43,-126.90 83.11 2.15 65
3 02/04/2020 14:44:59 -79.48, 162.37 83.70 02/04/2020 14:44:10 -79.44, 162.43 83.74 3.75 49
4 02/04/2020 15:34:26 79.44, -30.27 96.23 02/04/2020 15:35:11 79.44, -30.25 96.25 0.52 45
5 02/06/2020 20:18:42 79.46,-101.20 95.59 02/06/2020 20:17:32 79.47,-101.10 95.60 2.88 70
6 02/06/2020 21:08:09 -79.46, 66.48 84.41 02/06/2020 21:08:31 -79.44, 66.44 84.43 2.30 22
7 02/09/2020 02:41:51 79.48, 163.14 94.91 02/09/2020 02:41:52 79.46, 163.00 94.89 3.11 1
8 02/11/2020 08:15:35 -79.46,-100.37 85.83 02/11/2020 08:15:13 -79.47,-100.26 85.83 2.23 22
9 02/11/2020 09:05:01 79.46, 67.21 94.15 02/11/2020 09:06:12 79.45, 67.10 94.16 2.25 71
10 02/13/2020 13:49:17 79.47, -3.76 93.44 02/13/2020 13:48:33 79.49, -3.78 93.45 2.71 44




NCC Satellite Simultaneous Nadir Overpasses (SNOs) Prediction Service
